Valparaiso, FL

3:57 AM CST on February 21, 2018 (GMT -0600)
Eglin Air Force Base

Weather History for KVPS - March, 2013

Change the Weather History Date:

Thursday, March 14, 2013

  Actual Average Record
Temperature  
Mean Temperature 51 °F -  
Max Temperature 65 °F 71 °F 85 °F (1982)
Min Temperature 37 °F 48 °F 28 °F (1968)
Degree Days  
Heating Degree Days 14    
Growing Degree Days 1 (Base 50)    
Moisture  
Dew Point 24 °F    
Average Humidity 38    
Maximum Humidity 67    
Minimum Humidity 16    
Precipitation  
Precipitation 0.00 in - - ()
Sea Level Pressure  
Sea Level Pressure 30.34 in    
Wind  
Wind Speed 9 mph (NNW)    
Max Wind Speed 16 mph    
Max Gust Speed 20 mph    
Visibility 9 miles    
Events      
Averages and records for this station are not official NWS values.
T = Trace of Precipitation, MM = Missing Value Source: NWS Daily Summary

Daily Weather History Graph

Daily Weather History Graph

Search for Another Location

Airport or City:

Trip Planner

Search our weather history database for the weather conditions in past years. The results will help you decide how hot, cold, wet, or windy it might be!

Date:

Astronomy

Mar. 14, 2013 Rise Set
Actual Time 6:56 AM CDT 6:53 PM CDT
Civil Twilight 6:32 AM CDT 7:17 PM CDT
Nautical Twilight 6:05 AM CDT 7:45 PM CDT
Astronomical Twilight 5:37 AM CDT 8:13 PM CDT
Moon 8:25 AM CDT (3/14) 9:52 PM CDT (3/14)
Length of Visible Light 12h 44m
Length of Day
11h 56m
Waxing Crescent, 9% of the Moon is Illuminated
Mar 14
Waxing Crescent
Mar 19
First Quarter
Mar 27
Full
Apr 2
Last Quarter
Apr 10
New

Hourly Weather History & Observations

Time (CDT) Temp. Windchill Dew Point Humidity Pressure Visibility Wind Dir Wind Speed Gust Speed Precip Events Conditions
12:55 AM 43.9 °F 39.9 °F 23.2 °F 44% 30.33 in 6.0 mi NW 6.9 mph - N/A   Smoke
1:55 AM 45.3 °F 41.1 °F 23.0 °F 41% 30.34 in 6.0 mi NNW 8.1 mph - N/A   Smoke
2:55 AM 45.0 °F 39.3 °F 23.9 °F 44% 30.34 in 6.0 mi NNW 11.5 mph - N/A   Smoke
3:55 AM 43.2 °F 37.4 °F 23.7 °F 46% 30.33 in 10.0 mi North 10.4 mph - N/A   Partly Cloudy
4:55 AM 42.4 °F 36.5 °F 23.7 °F 48% 30.35 in 10.0 mi North 10.4 mph - N/A   Partly Cloudy
5:55 AM 39.9 °F 33.9 °F 24.3 °F 54% 30.37 in 10.0 mi NNW 9.2 mph - N/A   Partly Cloudy
6:55 AM 37.4 °F 32.8 °F 25.2 °F 61% 30.38 in 10.0 mi North 5.8 mph - N/A   Clear
7:55 AM 40.1 °F 34.7 °F 25.2 °F 55% 30.42 in 10.0 mi North 8.1 mph - N/A   Clear
8:55 AM 44.6 °F 37.4 °F 22.1 °F 41% 30.42 in 10.0 mi NNE 16.1 mph - N/A   Clear
9:58 AM 48.2 °F - 22.5 °F 36% 30.40 in 10.0 mi NE 13.8 mph - N/A   Partly Cloudy
10:55 AM 52.3 °F - 19.4 °F 27% 30.40 in 10.0 mi NNE 13.8 mph - N/A   Partly Cloudy
11:56 AM 56.5 °F - 18.3 °F 23% 30.39 in 10.0 mi North 15.0 mph - N/A   Partly Cloudy
12:55 PM 58.6 °F - 20.7 °F 23% 30.36 in 10.0 mi NNE 8.1 mph 19.6 mph N/A   Partly Cloudy
1:56 PM 61.2 °F - 18.3 °F 19% 30.34 in 10.0 mi NNW 6.9 mph - N/A   Partly Cloudy
2:55 PM 63.1 °F - 17.6 °F 17% 30.32 in 6.0 mi NNW 9.2 mph - N/A   Smoke
3:55 PM 64.2 °F - 17.4 °F 16% 30.29 in 9.0 mi North 9.2 mph - N/A   Partly Cloudy
4:55 PM 65.1 °F - 18.3 °F 17% 30.27 in 10.0 mi North 8.1 mph - N/A   Partly Cloudy
5:56 PM 64.4 °F - 19.6 °F 18% 30.27 in 10.0 mi North 9.2 mph - N/A   Partly Cloudy
6:56 PM 60.3 °F - 24.1 °F 25% 30.28 in 10.0 mi NNW 2.3 mph - N/A   Partly Cloudy
7:55 PM 55.4 °F - 27.3 °F 34% 30.31 in 10.0 mi West 3.5 mph - N/A   Partly Cloudy
8:55 PM 50.5 °F - 31.3 °F 48% 30.31 in 10.0 mi WNW 3.5 mph - N/A   Clear
9:55 PM 46.9 °F - 31.3 °F 55% 30.31 in 10.0 mi West 5.8 mph - N/A   Clear
10:55 PM 46.6 °F - 32.5 °F 58% 30.32 in 10.0 mi WNW 5.8 mph - N/A   Clear
11:55 PM 44.2 °F 40.3 °F 34.0 °F 67% 30.32 in 10.0 mi WNW 6.9 mph - N/A   Clear